Flag for United Kingdom Weather past 2 weeks in Sutton Coldfield, England, United Kingdom

Now
46 °F

Partly sunny.


Feels Like: 41 °F
Forecast: 41 / 46 °F
Wind: 12 mph from West

Location: Birmingham / Airport

Current Time: Apr 1, 2015 at 11:21:15 AM

Latest Report: Apr 1, 2015 at 10:50 AM


Visibility: N/A

Pressure: 30.21 "Hg

Humidity: 57%

Dew point: 32 °F

Location of Sutton ColdfieldLocation

Historic Weather in Sutton Coldfield — Graph

°F

Sutton Coldfield temperature yesterday

Maximum temperature yesterday: 52 °F (at 12:20 AM)
Minimum temperature yesterday: 41 °F (at 8:50 PM)
Average temperature yesterday: 47 °F

Past Weeks' High & Low Weather Summary

 TemperatureHumidityPressure
High57 °F (Mar 28, 12:50 PM)100% (Mar 18, 2:20 AM)30.57 "Hg (Mar 18, 2:20 AM)
Low30 °F (Mar 25, 5:20 AM)41% (Mar 31, 3:50 PM)29.24 "Hg (Mar 29, 11:50 AM)
Average44 °F73%30.01 "Hg
* Reported Mar 17 9:20 AM — Apr 1 10:20 AM, Sutton Coldfield, Weather by CustomWeather, © 2015

Note: Actual official high and low records may vary slightly from our data, if they occured in-between our weather recording intervals... More about our weather records

Advertising

Sutton Coldfield weather history for previous 24 hours

 ConditionsComfort  
Time TempWeatherWind HumidityBarometerVisibility
10:20 AM
Wed, Apr 1
45 °FPartly sunny.16 mph61%30.21 "HgN/A
9:50 AM45 °FScattered clouds.14 mph61%30.21 "HgN/A
9:20 AM43 °FPassing clouds.13 mph66%30.21 "HgN/A
8:50 AM43 °FPassing clouds.13 mph66%30.21 "HgN/A
8:20 AM41 °FSunny.12 mph66%30.18 "Hg10 mi
7:50 AM41 °FSunny.10 mph66%30.18 "Hg10 mi
7:20 AM39 °FClear.12 mph65%30.18 "Hg10 mi
6:50 AM39 °FClear.9 mph65%30.15 "Hg10 mi
6:20 AM39 °FClear.13 mph65%30.15 "Hg10 mi
5:50 AM39 °FClear.12 mph65%30.15 "Hg10 mi
5:20 AM39 °FClear.10 mph65%30.15 "Hg10 mi
4:50 AM39 °FClear.12 mph65%30.15 "Hg10 mi
4:20 AM39 °FPassing clouds.12 mph65%30.12 "HgN/A
3:50 AM39 °FClear.14 mph61%30.12 "Hg10 mi
3:20 AM39 °FClear.12 mph61%30.12 "Hg10 mi
2:50 AM41 °FPassing clouds.15 mph57%30.09 "HgN/A
2:20 AM41 °FPassing clouds.14 mph57%30.09 "HgN/A
1:50 AM41 °FPassing clouds.14 mph61%30.09 "HgN/A
1:20 AM41 °FPassing clouds.14 mph61%30.07 "HgN/A
12:50 AM41 °FPassing clouds.15 mph57%30.07 "HgN/A
12:20 AM41 °FPassing clouds.17 mph57%30.07 "HgN/A
11:50 PM
Tue, Mar 31
41 °FClear.16 mph57%30.04 "Hg10 mi
11:20 PM41 °FClear.14 mph61%30.04 "Hg10 mi
10:50 PM43 °FPassing clouds.18 mph57%30.01 "HgN/A
10:20 PM41 °FClear.13 mph70%30.01 "Hg10 mi
9:50 PM41 °FClear.13 mph70%30.01 "Hg10 mi
9:20 PM41 °FClear.15 mph70%29.98 "Hg10 mi
8:50 PM41 °FPassing clouds.15 mph70%29.98 "HgN/A
8:20 PM43 °FSprinkles. Scattered clouds.16 mph71%29.98 "HgN/A
7:50 PM43 °FScattered showers. Partly sunny.14 mph66%29.95 "HgN/A
7:20 PM43 °FScattered showers. Scattered clouds.12 mph71%29.95 "HgN/A
6:50 PM43 °FSprinkles. Scattered clouds.15 mph71%29.95 "HgN/A
6:20 PM45 °FSprinkles. Partly sunny.18 mph66%29.92 "HgN/A
5:50 PM45 °FSleet. Broken clouds.18 mph71%29.92 "HgN/A
5:20 PM46 °FPassing clouds.20 mph53%29.89 "HgN/A
4:50 PM46 °FScattered showers. Scattered clouds.18 mph62%29.89 "HgN/A
4:20 PM43 °FScattered clouds.20 mph81%29.89 "HgN/A
3:50 PM52 °FSprinkles. Partly sunny.23 mph41%29.83 "HgN/A
3:20 PM50 °FScattered showers. Scattered clouds.23 mph43%29.83 "HgN/A
2:50 PM50 °FScattered showers. Scattered clouds.23 mph47%29.83 "HgN/A
2:20 PM48 °FScattered showers. Passing clouds.21 mph58%29.83 "HgN/A
1:50 PM48 °FSprinkles. Scattered clouds.24 mph58%29.80 "HgN/A
1:20 PM50 °FSprinkles. Broken clouds.21 mph50%29.80 "HgN/A
12:50 PM50 °FScattered showers. Scattered clouds.20 mph54%29.80 "HgN/A
12:20 PM50 °FScattered showers. Scattered clouds.23 mph50%29.77 "HgN/A
11:50 AM50 °FScattered showers. Scattered clouds.21 mph50%29.77 "HgN/A
11:20 AM50 °FScattered clouds.24 mph47%29.74 "HgN/A
Weather by CustomWeather, © 2015

See weather overviewHow to use our weather pages